Location: Unspecified
(41.5000°N, 0.0000°E)
Time: 17:41:51
(UTC+00:00)

Courier 1B Rocket - Pass Details

Date: 01 July 2019
Orbit: 921 x 1202 km, 28.2° (Epoch: 17 July)

Event Time Altitude Azimuth Distance (km) Brightness Sun altitude
Rises 00:14:18 0° 224° (SW) 4,087 - -25.3°
Reaches altitude 10° 00:17:55 10° 210° (SSW) 3,113 - -25.3°
Maximum altitude 00:23:28 22° 164° (SSE) 2,329 - -25.2°
Exits shadow 00:28:36 11° 119° (ESE) 2,965 7.3 -25.1°
Drops below altitude 10° 00:28:52 10° 118° (ESE) 3,023 7.4 -25.1°
Sets 00:32:18 0° 103° (ESE) 3,938 8.1 -25.0°
